Hourly Data Report for October 07, 2015

All times are specified in Local Standard Time (LST). Add 1 hour to adjust for Daylight Saving Time where and when it is observed.

CAPE DORSET A
NUNAVUT

64°13'49.000" N
76°31'30.000" W
48.20 m
2400637
71366
YTE

Download Data

Hourly Data (October 2015)
Hourly Data Report for October 7, 2015
Temp Definition
°C
Dew Point Temp Definition
°C
Rel Hum Definition
%
Wind Dir Definition
10's deg

Wind Spd Definition
km/h
Visibility Definition
km
Stn Press Definition
kPa
Hmdx Definition


Wind Chill Definition


Weather Definition


TIME
00:00 Legend Double Dagger -2.4 -4.1 88 6 32 16.1 99.66   -10 LegendNANA
01:00 Legend Double Dagger -2.9 -3.8 94 5 34 9.7 99.60   -11 Snow
02:00 Legend Double Dagger -3.0 -3.7 95 5 32 9.7 99.55   -11 Snow
03:00 Legend Double Dagger -2.8 -3.4 96 5 32 9.7 99.49   -10 Snow
04:00 Legend Double Dagger -2.4 -2.8 97 5 30 8.1 99.46   -10 Snow
05:00 Legend Double Dagger -2.2 -2.3 99 5 32 2.8 99.43   -10 Snow
06:00 Legend Double Dagger -2.2 -2.3 99 5 28 4.0 99.42   -9 Snow
07:00 Legend Double Dagger -2.7 -3.1 97 5 26 6.4 99.41   -10 Snow
08:00 Legend Double Dagger -3.0 -3.6 96 5 24 6.4 99.40   -10 Snow
09:00 Legend Double Dagger -3.2 -3.8 96 3 22 3.2 99.40   -10 Snow
10:00 Legend Double Dagger -3.3 -4.0 95 2 18 4.8 99.38   -9 Snow
11:00 Legend Double Dagger -3.3 -3.8 96 2 22 2.4 99.38   -10 Snow
12:00 Legend Double Dagger -3.1 -3.8 95 2 21 11.3 99.36   -9 Snow
13:00 Legend Double Dagger -3.1 -3.7 96 3 18 3.6 99.35   -9 Snow
14:00 Legend Double Dagger -2.9 -3.7 94 2 18 4.0 99.37   -9 Snow
15:00 Legend Double Dagger -2.6 -3.9 91 3 21 16.1 99.36   -9 Snow
16:00 Legend Double Dagger -2.5 -3.4 94 1 17 9.7 99.40   -8 Snow
17:00 Legend Double Dagger -2.9 -3.7 95 36 22 4.0 99.43   -9 Snow
18:00 Legend Double Dagger -3.1 -4.2 92 34 18 9.7 99.46   -9 Snow
19:00 Legend Double Dagger -3.2 -4.6 90 35 26 6.4 99.48   -10 Snow
20:00 Legend Double Dagger -3.2 -4.8 89 34 28 9.7 99.50   -10 Snow
21:00 Legend Double Dagger -3.2 -4.6 90 33 22 12.9 99.51   -10 Snow
22:00 Legend Double Dagger -3.1 -4.8 88 32 24 16.1 99.51   -10 LegendNANA
23:00 Legend Double Dagger -2.9 -4.8 87 32 24 16.1 99.56   -10 LegendNANA

Notes on Data Quality.

Legend

  • E = Estimated
  • M = Missing
  • NA = Not Available
  • ‡ = Partner data that is not subject to review by the National Climate Archives
Date modified: